| time (UTC) | temp F | wind direction | speed MPH | gust MPH | rain 1hr in | rain 24hr in | rain mn in | humidity % | barometer mb |
| 20260509094011 | 56 | 0 | 0.0 | 0.0 | 0.00 | 0.00 | 0.00 | 78 | 1030.1 |
| 20260509093510 | 57 | 0 | 0.0 | 0.0 | 0.00 | 0.00 | 0.00 | 78 | 1030.1 |
| 20260509093030 | 57 | 0 | 0.0 | 0.0 | 0.00 | 0.00 | 0.00 | 78 | 1030.1 |
| 20260509092512 | 57 | 0 | 0.0 | 0.0 | 0.00 | 0.00 | 0.00 | 78 | 1030.1 |
| 20260509092009 | 57 | 0 | 0.0 | 0.0 | 0.00 | 0.00 | 0.00 | 78 | 1029.9 |
| 20260509091533 | 58 | 0 | 0.0 | 0.0 | 0.00 | 0.00 | 0.00 | 78 | 1030.0 |
| 20260509091010 | 58 | 0 | 0.0 | 0.0 | 0.00 | 0.00 | 0.00 | 78 | 1030.0 |
| 20260509090510 | 58 | 0 | 0.0 | 0.0 | 0.00 | 0.00 | 0.00 | 78 | 1030.0 |
| 20260509090028 | 59 | 0 | 0.0 | 0.0 | 0.00 | 0.00 | 0.00 | 78 | 1030.0 |
| 20260509085510 | 59 | 0 | 0.0 | 0.0 | 0.00 | 0.00 | 0.00 | 78 | 1030.0 |
| 20260509085010 | 59 | 0 | 0.0 | 0.0 | 0.00 | 0.00 | 0.00 | 78 | 1029.9 |
| 20260509084530 | 60 | 0 | 0.0 | 0.0 | 0.00 | 0.00 | 0.00 | 78 | 1029.9 |
| 20260509084010 | 60 | 0 | 0.0 | 0.0 | 0.00 | 0.00 | 0.00 | 78 | 1029.9 |
| 20260509083512 | 60 | 0 | 0.0 | 0.0 | 0.00 | 0.00 | 0.00 | 78 | 1029.9 |
| 20260509083039 | 60 | 0 | 0.0 | 0.0 | 0.00 | 0.00 | 0.00 | 78 | 1029.7 |
| 20260509082511 | 61 | 0 | 0.0 | 0.0 | 0.00 | 0.00 | 0.00 | 78 | 1029.7 |
| 20260509082011 | 61 | 0 | 0.0 | 0.0 | 0.00 | 0.00 | 0.00 | 78 | 1029.6 |
| 20260509081532 | 61 | 0 | 0.0 | 0.0 | 0.00 | 0.00 | 0.00 | 78 | 1029.6 |
| 20260509081009 | 62 | 0 | 0.0 | 1.0 | 0.00 | 0.00 | 0.00 | 78 | 1029.5 |
| 20260509080513 | 62 | 0 | 0.0 | 1.0 | 0.00 | 0.00 | 0.00 | 78 | 1029.5 |
| 20260509080034 | 62 | 0 | 0.0 | 2.0 | 0.00 | 0.00 | 0.00 | 78 | 1029.5 |
| 20260509075509 | 62 | 0 | 0.0 | 2.0 | 0.00 | 0.00 | 0.00 | 78 | 1029.4 |
| 20260509075010 | 62 | 0 | 0.0 | 2.0 | 0.00 | 0.00 | 0.00 | 78 | 1029.5 |
| 20260509074531 | 62 | 245 | 0.0 | 3.0 | 0.00 | 0.00 | 0.00 | 78 | 1029.5 |
| 20260509074014 | 63 | 0 | 0.0 | 3.0 | 0.00 | 0.00 | 0.00 | 78 | 1029.6 |
| 20260509073511 | 63 | 245 | 0.0 | 5.0 | 0.00 | 0.00 | 0.00 | 78 | 1029.5 |
| 20260509073030 | 63 | 0 | 1.0 | 5.0 | 0.00 | 0.00 | 0.00 | 77 | 1029.5 |
| 20260509072511 | 63 | 0 | 0.0 | 2.0 | 0.00 | 0.00 | 0.00 | 77 | 1029.5 |
| 20260509072011 | 63 | 246 | 0.0 | 3.0 | 0.00 | 0.00 | 0.00 | 77 | 1029.5 |
| 20260509071530 | 63 | 246 | 1.0 | 3.0 | 0.00 | 0.00 | 0.00 | 77 | 1029.4 |
| 20260509071010 | 63 | 245 | 0.0 | 3.0 | 0.00 | 0.00 | 0.00 | 76 | 1029.4 |
| 20260509070511 | 63 | 246 | 0.0 | 3.0 | 0.00 | 0.00 | 0.00 | 76 | 1029.4 |
| 20260509070028 | 64 | 246 | 0.0 | 4.0 | 0.00 | 0.00 | 0.00 | 76 | 1029.5 |
| 20260509065513 | 64 | 246 | 1.0 | 5.0 | 0.00 | 0.00 | 0.00 | 75 | 1029.3 |
| 20260509065010 | 64 | 0 | 0.0 | 5.0 | 0.00 | 0.00 | 0.00 | 75 | 1029.5 |
| 20260509064554 | 64 | 244 | 1.0 | 4.0 | 0.00 | 0.00 | 0.00 | 75 | 1029.3 |
| 20260509064009 | 64 | 244 | 0.0 | 4.0 | 0.00 | 0.00 | 0.00 | 74 | 1029.3 |
| 20260509063512 | 64 | 0 | 0.0 | 4.0 | 0.00 | 0.00 | 0.00 | 74 | 1029.4 |
| 20260509063034 | 65 | 244 | 0.0 | 4.0 | 0.00 | 0.00 | 0.00 | 74 | 1029.4 |
| 20260509062511 | 65 | 0 | 0.0 | 4.0 | 0.00 | 0.00 | 0.00 | 74 | 1029.4 |
| 20260509062011 | 65 | 244 | 0.0 | 4.0 | 0.00 | 0.00 | 0.00 | 74 | 1029.4 |
| 20260509061540 | 65 | 244 | 1.0 | 5.0 | 0.00 | 0.00 | 0.00 | 74 | 1029.4 |
| 20260509061011 | 66 | 247 | 1.0 | 5.0 | 0.00 | 0.00 | 0.00 | 74 | 1029.3 |
| 20260509060511 | 66 | 245 | 1.0 | 5.0 | 0.00 | 0.00 | 0.00 | 74 | 1029.3 |
| 20260509060031 | 66 | 249 | 1.0 | 5.0 | 0.00 | 0.00 | 0.00 | 75 | 1029.2 |
| 20260509055511 | 65 | 251 | 1.0 | 7.0 | 0.00 | 0.00 | 0.00 | 75 | 1029.3 |
| 20260509055010 | 65 | 246 | 2.0 | 7.0 | 0.00 | 0.00 | 0.00 | 76 | 1029.3 |
| 20260509054530 | 65 | 248 | 2.0 | 5.0 | 0.00 | 0.00 | 0.00 | 77 | 1029.3 |
| 20260509054011 | 64 | 0 | 1.0 | 5.0 | 0.00 | 0.00 | 0.00 | 77 | 1029.4 |
| 20260509053509 | 64 | 252 | 1.0 | 5.0 | 0.00 | 0.00 | 0.00 | 77 | 1029.2 |
| 20260509053049 | 64 | 250 | 1.0 | 5.0 | 0.00 | 0.00 | 0.00 | 77 | 1029.4 |
| 20260509052511 | 64 | 249 | 0.0 | 4.0 | 0.00 | 0.00 | 0.00 | 77 | 1029.4 |
| 20260509052009 | 63 | 249 | 2.0 | 4.0 | 0.00 | 0.00 | 0.00 | 77 | 1029.5 |
| 20260509051527 | 63 | 249 | 1.0 | 3.0 | 0.00 | 0.00 | 0.00 | 77 | 1029.4 |
| 20260509051012 | 63 | 0 | 0.0 | 4.0 | 0.00 | 0.00 | 0.00 | 77 | 1029.5 |
| 20260509050509 | 63 | 0 | 0.0 | 4.0 | 0.00 | 0.00 | 0.00 | 77 | 1029.4 |
| 20260509050032 | 63 | 248 | 1.0 | 5.0 | 0.00 | 0.00 | 0.00 | 77 | 1029.5 |
| 20260509045512 | 63 | 250 | 1.0 | 5.0 | 0.00 | 0.00 | 0.00 | 77 | 1029.4 |
| 20260509045011 | 63 | 0 | 0.0 | 3.0 | 0.00 | 0.00 | 0.00 | 77 | 1029.4 |
| 20260509044533 | 63 | 249 | 1.0 | 4.0 | 0.00 | 0.00 | 0.00 | 77 | 1029.6 |
| 20260509044011 | 63 | 249 | 1.0 | 4.0 | 0.00 | 0.00 | 0.00 | 77 | 1029.5 |
| 20260509043510 | 63 | 248 | 1.0 | 4.0 | 0.00 | 0.00 | 0.00 | 77 | 1029.6 |
| 20260509043033 | 63 | 248 | 1.0 | 4.0 | 0.00 | 0.00 | 0.00 | 77 | 1029.7 |
| 20260509042512 | 63 | 248 | 0.0 | 3.0 | 0.00 | 0.00 | 0.00 | 77 | 1029.7 |
| 20260509042014 | 63 | 0 | 0.0 | 5.0 | 0.00 | 0.00 | 0.00 | 77 | 1029.7 |
| 20260509041528 | 63 | 248 | 0.0 | 5.0 | 0.00 | 0.00 | 0.00 | 78 | 1029.8 |
| 20260509041009 | 63 | 0 | 0.0 | 4.0 | 0.00 | 0.00 | 0.00 | 78 | 1029.9 |
| 20260509040511 | 63 | 247 | 0.0 | 5.0 | 0.00 | 0.00 | 0.00 | 78 | 1029.8 |
| 20260509040030 | 63 | 247 | 1.0 | 5.0 | 0.00 | 0.00 | 0.00 | 78 | 1029.8 |
| 20260509035509 | 63 | 0 | 1.0 | 3.0 | 0.00 | 0.00 | 0.00 | 78 | 1029.8 |
| 20260509035010 | 63 | 248 | 1.0 | 3.0 | 0.00 | 0.00 | 0.00 | 78 | 1029.8 |
| 20260509034534 | 63 | 248 | 1.0 | 7.0 | 0.00 | 0.00 | 0.00 | 78 | 1029.8 |
| 20260509034010 | 63 | 248 | 2.0 | 7.0 | 0.00 | 0.00 | 0.00 | 78 | 1029.9 |
| 20260509033512 | 63 | 246 | 1.0 | 3.0 | 0.00 | 0.00 | 0.00 | 78 | 1030.0 |
| 20260509033029 | 63 | 0 | 0.0 | 3.0 | 0.00 | 0.00 | 0.00 | 78 | 1030.1 |
| 20260509032515 | 63 | 246 | 0.0 | 3.0 | 0.00 | 0.00 | 0.00 | 78 | 1030.1 |
| 20260509032023 | 63 | 246 | 1.0 | 2.0 | 0.00 | 0.00 | 0.00 | 78 | 1030.3 |
| 20260509031533 | 63 | 0 | 0.0 | 5.0 | 0.00 | 0.00 | 0.00 | 78 | 1030.3 |
| 20260509031012 | 63 | 0 | 0.0 | 5.0 | 0.00 | 0.00 | 0.00 | 79 | 1030.4 |
| 20260509030514 | 63 | 0 | 0.0 | 0.0 | 0.00 | 0.00 | 0.00 | 79 | 1030.5 |
| 20260509030030 | 63 | 0 | 0.0 | 0.0 | 0.00 | 0.00 | 0.00 | 79 | 1030.6 |
| 20260509025511 | 63 | 0 | 0.0 | 4.0 | 0.00 | 0.00 | 0.00 | 79 | 1030.6 |
| 20260509025013 | 62 | 0 | 0.0 | 4.0 | 0.00 | 0.00 | 0.00 | 79 | 1030.8 |
| 20260509024530 | 62 | 0 | 2.0 | 4.0 | 0.00 | 0.00 | 0.00 | 79 | 1030.9 |
| 20260509024009 | 62 | 244 | 0.0 | 2.0 | 0.00 | 0.00 | 0.00 | 79 | 1031.0 |
| 20260509023511 | 62 | 0 | 0.0 | 3.0 | 0.00 | 0.00 | 0.00 | 79 | 1031.1 |
| 20260509023032 | 62 | 0 | 0.0 | 5.0 | 0.00 | 0.00 | 0.00 | 79 | 1031.1 |
| 20260509022517 | 62 | 244 | 2.0 | 5.0 | 0.00 | 0.00 | 0.00 | 79 | 1031.2 |
| 20260509022012 | 62 | 245 | 1.0 | 3.0 | 0.00 | 0.00 | 0.00 | 79 | 1031.3 |
| 20260509021528 | 62 | 245 | 1.0 | 3.0 | 0.00 | 0.00 | 0.00 | 79 | 1031.3 |
| 20260509021009 | 62 | 245 | 0.0 | 3.0 | 0.00 | 0.00 | 0.00 | 79 | 1031.5 |
| 20260509020511 | 62 | 0 | 0.0 | 3.0 | 0.00 | 0.00 | 0.00 | 80 | 1031.4 |
| 20260509020036 | 62 | 0 | 1.0 | 3.0 | 0.00 | 0.00 | 0.00 | 80 | 1031.6 |
| 20260509015511 | 62 | 244 | 0.0 | 4.0 | 0.00 | 0.00 | 0.00 | 81 | 1031.5 |
| 20260509015013 | 62 | 0 | 0.0 | 4.0 | 0.00 | 0.00 | 0.00 | 81 | 1031.7 |
| 20260509014534 | 62 | 244 | 1.0 | 4.0 | 0.00 | 0.00 | 0.00 | 81 | 1031.7 |
| 20260509014012 | 62 | 244 | 1.0 | 4.0 | 0.00 | 0.00 | 0.00 | 82 | 1031.9 |
| 20260509013511 | 61 | 244 | 1.0 | 4.0 | 0.00 | 0.00 | 0.00 | 82 | 1032.0 |
| 20260509013028 | 61 | 0 | 0.0 | 3.0 | 0.00 | 0.00 | 0.00 | 83 | 1031.9 |
| 20260509012511 | 61 | 244 | 0.0 | 3.0 | 0.00 | 0.00 | 0.00 | 83 | 1032.0 |
| 20260509012013 | 61 | 0 | 0.0 | 3.0 | 0.00 | 0.00 | 0.00 | 84 | 1032.0 |
| 20260509011528 | 61 | 0 | 0.0 | 3.0 | 0.00 | 0.00 | 0.00 | 84 | 1032.1 |
| 20260509011010 | 61 | 0 | 0.0 | 1.0 | 0.00 | 0.00 | 0.00 | 85 | 1032.1 |
| 20260509010510 | 61 | 0 | 0.0 | 3.0 | 0.00 | 0.00 | 0.00 | 85 | 1032.1 |
| 20260509010028 | 61 | 0 | 0.0 | 3.0 | 0.00 | 0.00 | 0.00 | 86 | 1032.1 |
| 20260509005515 | 61 | 243 | 0.0 | 3.0 | 0.00 | 0.00 | 0.00 | 86 | 1032.1 |
| 20260509005010 | 61 | 0 | 0.0 | 4.0 | 0.00 | 0.00 | 0.00 | 86 | 1032.2 |
| 20260509004536 | 61 | 0 | 0.0 | 4.0 | 0.00 | 0.00 | 0.00 | 87 | 1032.1 |
| 20260509004009 | 61 | 243 | 0.0 | 0.0 | 0.00 | 0.00 | 0.00 | 88 | 1032.1 |
| 20260509003540 | 60 | 0 | 0.0 | 0.0 | 0.00 | 0.00 | 0.00 | 88 | 1032.1 |
| 20260509003033 | 60 | 0 | 0.0 | 0.0 | 0.00 | 0.00 | 0.00 | 88 | 1032.1 |
| 20260509002514 | 60 | 0 | 0.0 | 0.0 | 0.00 | 0.00 | 0.00 | 89 | 1032.2 |
| 20260509002010 | 60 | 0 | 0.0 | 0.0 | 0.00 | 0.00 | 0.00 | 89 | 1032.2 |
| 20260509001528 | 59 | 0 | 0.0 | 0.0 | 0.00 | 0.00 | 0.00 | 89 | 1032.3 |
| 20260509001012 | 59 | 0 | 0.0 | 0.0 | 0.00 | 0.00 | 0.00 | 89 | 1032.3 |
| 20260509000514 | 59 | 0 | 0.0 | 0.0 | 0.00 | 0.00 | 0.00 | 89 | 1032.4 |
| 20260509000028 | 59 | 0 | 0.0 | 0.0 | 0.00 | 0.00 | 0.00 | 89 | 1032.3 |
| 20260508235509 | 58 | 0 | 0.0 | 0.0 | 0.00 | 0.00 | 0.00 | 90 | 1032.3 |
| 20260508235011 | 58 | 0 | 0.0 | 0.0 | 0.00 | 0.00 | 0.00 | 89 | 1032.4 |
| 20260508234528 | 57 | 0 | 0.0 | 0.0 | 0.00 | 0.00 | 0.00 | 89 | 1032.3 |
| 20260508234010 | 57 | 0 | 0.0 | 0.0 | 0.00 | 0.00 | 0.00 | 90 | 1032.3 |
| 20260508233512 | 56 | 0 | 0.0 | 0.0 | 0.00 | 0.00 | 0.00 | 90 | 1032.3 |
| 20260508233030 | 55 | 0 | 0.0 | 0.0 | 0.00 | 0.00 | 0.00 | 89 | 1032.3 |
| 20260508232509 | 55 | 0 | 0.0 | 0.0 | 0.00 | 0.00 | 0.00 | 89 | 1032.3 |
| 20260508232010 | 54 | 0 | 0.0 | 0.0 | 0.00 | 0.00 | 0.00 | 89 | 1032.2 |
| 20260508231529 | 53 | 0 | 0.0 | 0.0 | 0.00 | 0.00 | 0.00 | 89 | 1032.2 |
| 20260508231010 | 53 | 0 | 0.0 | 0.0 | 0.00 | 0.00 | 0.00 | 88 | 1032.1 |
| 20260508230511 | 52 | 0 | 0.0 | 0.0 | 0.00 | 0.00 | 0.00 | 88 | 1032.1 |
| 20260508230026 | 52 | 0 | 0.0 | 0.0 | 0.00 | 0.00 | 0.00 | 88 | 1032.0 |
| 20260508225516 | 51 | 0 | 0.0 | 0.0 | 0.00 | 0.00 | 0.00 | 88 | 1032.0 |
| 20260508225010 | 51 | 0 | 0.0 | 0.0 | 0.00 | 0.00 | 0.00 | 88 | 1032.0 |
| 20260508224530 | 50 | 0 | 0.0 | 0.0 | 0.00 | 0.00 | 0.00 | 88 | 1031.8 |
| 20260508224009 | 49 | 0 | 0.0 | 0.0 | 0.00 | 0.00 | 0.00 | 87 | 1031.8 |
| 20260508223508 | 48 | 0 | 0.0 | 0.0 | 0.00 | 0.00 | 0.00 | 87 | 1031.7 |
| 20260508223039 | 48 | 0 | 0.0 | 0.0 | 0.00 | 0.00 | 0.00 | 87 | 1031.7 |
| 20260508222509 | 47 | 0 | 0.0 | 0.0 | 0.00 | 0.00 | 0.00 | 87 | 1031.8 |
| 20260508222011 | 47 | 0 | 0.0 | 0.0 | 0.00 | 0.00 | 0.00 | 86 | 1031.8 |
| 20260508221532 | 47 | 0 | 0.0 | 0.0 | 0.00 | 0.00 | 0.00 | 86 | 1031.8 |
| 20260508221010 | 47 | 0 | 0.0 | 0.0 | 0.00 | 0.00 | 0.00 | 86 | 1031.7 |
| 20260508220510 | 47 | 0 | 0.0 | 0.0 | 0.00 | 0.00 | 0.00 | 86 | 1031.7 |
| 20260508220032 | 47 | 0 | 0.0 | 0.0 | 0.00 | 0.00 | 0.00 | 86 | 1031.8 |
| 20260508215510 | 47 | 0 | 0.0 | 0.0 | 0.00 | 0.00 | 0.00 | 86 | 1031.9 |
| 20260508215009 | 47 | 0 | 0.0 | 0.0 | 0.00 | 0.00 | 0.00 | 86 | 1031.9 |
| 20260508214528 | 47 | 0 | 0.0 | 0.0 | 0.00 | 0.00 | 0.00 | 86 | 1031.8 |
| 20260508214013 | 47 | 0 | 0.0 | 0.0 | 0.00 | 0.00 | 0.00 | 86 | 1031.7 |
| 20260508213511 | 47 | 0 | 0.0 | 0.0 | 0.00 | 0.00 | 0.00 | 86 | 1031.5 |
| 20260508213030 | 47 | 0 | 0.0 | 0.0 | 0.00 | 0.00 | 0.00 | 86 | 1031.5 |
| 20260508212511 | 47 | 0 | 0.0 | 0.0 | 0.00 | 0.00 | 0.00 | 86 | 1031.3 |
| 20260508212031 | 47 | 0 | 0.0 | 0.0 | 0.00 | 0.00 | 0.00 | 86 | 1031.3 |
| 20260508211538 | 47 | 0 | 0.0 | 0.0 | 0.00 | 0.00 | 0.00 | 86 | 1031.3 |
| 20260508211010 | 47 | 0 | 0.0 | 0.0 | 0.00 | 0.00 | 0.00 | 86 | 1031.3 |
| 20260508210510 | 48 | 0 | 0.0 | 0.0 | 0.00 | 0.00 | 0.00 | 86 | 1031.3 |
| 20260508210030 | 48 | 0 | 0.0 | 0.0 | 0.00 | 0.00 | 0.00 | 86 | 1031.2 |
| 20260508205511 | 48 | 0 | 0.0 | 0.0 | 0.00 | 0.00 | 0.00 | 86 | 1031.1 |
| 20260508205010 | 48 | 0 | 0.0 | 0.0 | 0.00 | 0.00 | 0.00 | 86 | 1031.2 |
| 20260508204528 | 48 | 0 | 0.0 | 0.0 | 0.00 | 0.00 | 0.00 | 86 | 1031.2 |
| 20260508204011 | 48 | 0 | 0.0 | 0.0 | 0.00 | 0.00 | 0.00 | 86 | 1031.0 |
| 20260508203508 | 48 | 0 | 0.0 | 0.0 | 0.00 | 0.00 | 0.00 | 86 | 1031.0 |
| 20260508203028 | 48 | 0 | 0.0 | 0.0 | 0.00 | 0.00 | 0.00 | 85 | 1031.0 |
| 20260508202510 | 48 | 0 | 0.0 | 0.0 | 0.00 | 0.00 | 0.00 | 85 | 1030.9 |
| 20260508202009 | 48 | 0 | 0.0 | 0.0 | 0.00 | 0.00 | 0.00 | 85 | 1030.9 |
| 20260508201526 | 48 | 0 | 0.0 | 0.0 | 0.00 | 0.00 | 0.00 | 86 | 1030.9 |
| 20260508201011 | 48 | 0 | 0.0 | 0.0 | 0.00 | 0.00 | 0.00 | 86 | 1030.8 |
| 20260508200509 | 48 | 0 | 0.0 | 0.0 | 0.00 | 0.00 | 0.00 | 86 | 1030.7 |
| 20260508200030 | 48 | 0 | 0.0 | 0.0 | 0.00 | 0.00 | 0.00 | 86 | 1030.8 |
| 20260508195512 | 48 | 0 | 0.0 | 0.0 | 0.00 | 0.00 | 0.00 | 86 | 1030.7 |
| 20260508195012 | 48 | 0 | 0.0 | 0.0 | 0.00 | 0.00 | 0.00 | 85 | 1030.7 |
| 20260508194531 | 48 | 0 | 0.0 | 0.0 | 0.00 | 0.00 | 0.00 | 85 | 1030.8 |
| 20260508194010 | 48 | 0 | 0.0 | 0.0 | 0.00 | 0.00 | 0.00 | 85 | 1030.7 |
| 20260508193510 | 48 | 0 | 0.0 | 0.0 | 0.00 | 0.00 | 0.00 | 85 | 1030.6 |
| 20260508193034 | 48 | 0 | 0.0 | 0.0 | 0.00 | 0.00 | 0.00 | 85 | 1030.5 |
| 20260508192509 | 48 | 0 | 0.0 | 0.0 | 0.00 | 0.00 | 0.00 | 85 | 1030.4 |
| 20260508192012 | 48 | 0 | 0.0 | 0.0 | 0.00 | 0.00 | 0.00 | 85 | 1030.5 |
| 20260508191537 | 48 | 0 | 0.0 | 0.0 | 0.00 | 0.00 | 0.00 | 85 | 1030.4 |
| 20260508191009 | 48 | 0 | 0.0 | 0.0 | 0.00 | 0.00 | 0.00 | 85 | 1030.5 |
| 20260508190510 | 48 | 0 | 0.0 | 0.0 | 0.00 | 0.00 | 0.00 | 85 | 1030.4 |
| 20260508190032 | 48 | 0 | 0.0 | 0.0 | 0.00 | 0.00 | 0.00 | 85 | 1030.5 |
| 20260508185509 | 48 | 0 | 0.0 | 0.0 | 0.00 | 0.00 | 0.00 | 84 | 1030.5 |
| 20260508185010 | 48 | 0 | 0.0 | 0.0 | 0.00 | 0.00 | 0.00 | 85 | 1030.4 |
| 20260508184531 | 47 | 0 | 0.0 | 0.0 | 0.00 | 0.00 | 0.00 | 84 | 1030.3 |
| 20260508184009 | 47 | 0 | 0.0 | 0.0 | 0.00 | 0.00 | 0.00 | 84 | 1030.4 |
| 20260508183513 | 47 | 0 | 0.0 | 0.0 | 0.00 | 0.00 | 0.00 | 84 | 1030.4 |
| 20260508183033 | 47 | 0 | 0.0 | 0.0 | 0.00 | 0.00 | 0.00 | 84 | 1030.4 |
| 20260508182510 | 47 | 0 | 0.0 | 0.0 | 0.00 | 0.00 | 0.00 | 84 | 1030.6 |
| 20260508182011 | 47 | 0 | 0.0 | 0.0 | 0.00 | 0.00 | 0.00 | 84 | 1030.6 |
| 20260508181528 | 47 | 0 | 0.0 | 0.0 | 0.00 | 0.00 | 0.00 | 84 | 1030.7 |
| 20260508181010 | 47 | 0 | 0.0 | 0.0 | 0.00 | 0.00 | 0.00 | 84 | 1030.7 |
| 20260508180511 | 47 | 0 | 0.0 | 0.0 | 0.00 | 0.00 | 0.00 | 84 | 1030.8 |
| 20260508180028 | 47 | 0 | 0.0 | 0.0 | 0.00 | 0.00 | 0.00 | 84 | 1030.8 |
| 20260508175512 | 48 | 0 | 0.0 | 0.0 | 0.00 | 0.00 | 0.00 | 84 | 1030.8 |
| 20260508175013 | 48 | 0 | 0.0 | 0.0 | 0.00 | 0.00 | 0.00 | 84 | 1030.8 |
| 20260508174529 | 48 | 0 | 0.0 | 0.0 | 0.00 | 0.00 | 0.00 | 84 | 1030.8 |
| 20260508174008 | 48 | 0 | 0.0 | 0.0 | 0.00 | 0.00 | 0.00 | 83 | 1030.9 |
| 20260508173510 | 48 | 0 | 0.0 | 0.0 | 0.00 | 0.00 | 0.00 | 83 | 1030.9 |
| 20260508173027 | 48 | 0 | 0.0 | 0.0 | 0.00 | 0.00 | 0.00 | 83 | 1030.9 |
| 20260508172510 | 48 | 0 | 0.0 | 0.0 | 0.00 | 0.00 | 0.00 | 83 | 1031.0 |
| 20260508172010 | 48 | 0 | 0.0 | 0.0 | 0.00 | 0.00 | 0.00 | 83 | 1031.0 |
| 20260508171525 | 48 | 0 | 0.0 | 0.0 | 0.00 | 0.00 | 0.00 | 83 | 1030.9 |
| 20260508171014 | 48 | 0 | 0.0 | 0.0 | 0.00 | 0.00 | 0.00 | 83 | 1031.0 |
| 20260508170511 | 48 | 0 | 0.0 | 0.0 | 0.00 | 0.00 | 0.00 | 83 | 1031.0 |
| 20260508170026 | 49 | 0 | 0.0 | 0.0 | 0.00 | 0.00 | 0.00 | 83 | 1030.9 |
| 20260508165511 | 49 | 0 | 0.0 | 0.0 | 0.00 | 0.00 | 0.00 | 83 | 1030.9 |
| 20260508165010 | 49 | 0 | 0.0 | 0.0 | 0.00 | 0.00 | 0.00 | 83 | 1030.9 |
| 20260508164528 | 49 | 0 | 0.0 | 0.0 | 0.00 | 0.00 | 0.00 | 83 | 1030.9 |
| 20260508164009 | 49 | 0 | 0.0 | 0.0 | 0.00 | 0.00 | 0.00 | 83 | 1030.9 |
| 20260508163510 | 49 | 0 | 0.0 | 0.0 | 0.00 | 0.00 | 0.00 | 83 | 1030.8 |
| 20260508163035 | 49 | 0 | 0.0 | 0.0 | 0.00 | 0.00 | 0.00 | 83 | 1030.8 |
| 20260508162510 | 49 | 0 | 0.0 | 0.0 | 0.00 | 0.00 | 0.00 | 83 | 1030.8 |
| 20260508162010 | 49 | 0 | 0.0 | 0.0 | 0.00 | 0.00 | 0.00 | 83 | 1030.7 |
| 20260508161532 | 49 | 0 | 0.0 | 0.0 | 0.00 | 0.00 | 0.00 | 83 | 1030.8 |
| 20260508161012 | 49 | 0 | 0.0 | 0.0 | 0.00 | 0.00 | 0.00 | 83 | 1030.8 |
| 20260508160509 | 49 | 0 | 0.0 | 0.0 | 0.00 | 0.00 | 0.00 | 82 | 1031.0 |
| 20260508160028 | 49 | 0 | 0.0 | 0.0 | 0.00 | 0.00 | 0.00 | 82 | 1030.9 |
| 20260508155510 | 49 | 0 | 0.0 | 0.0 | 0.00 | 0.00 | 0.00 | 82 | 1030.9 |
| 20260508155008 | 49 | 0 | 0.0 | 0.0 | 0.00 | 0.00 | 0.00 | 82 | 1030.8 |
| 20260508154530 | 50 | 0 | 0.0 | 0.0 | 0.00 | 0.00 | 0.00 | 82 | 1030.7 |
| 20260508154010 | 50 | 0 | 0.0 | 0.0 | 0.00 | 0.00 | 0.00 | 82 | 1030.8 |
| 20260508153511 | 50 | 0 | 0.0 | 0.0 | 0.00 | 0.00 | 0.00 | 82 | 1030.9 |
| 20260508153034 | 50 | 0 | 0.0 | 0.0 | 0.00 | 0.00 | 0.00 | 82 | 1030.9 |
| 20260508152510 | 50 | 0 | 0.0 | 0.0 | 0.00 | 0.00 | 0.00 | 82 | 1031.0 |
| 20260508152012 | 50 | 0 | 0.0 | 0.0 | 0.00 | 0.00 | 0.00 | 82 | 1030.9 |
| 20260508151530 | 50 | 0 | 0.0 | 0.0 | 0.00 | 0.00 | 0.00 | 82 | 1031.0 |
| 20260508151011 | 50 | 0 | 0.0 | 0.0 | 0.00 | 0.00 | 0.00 | 82 | 1031.0 |
| 20260508150510 | 50 | 0 | 0.0 | 0.0 | 0.00 | 0.00 | 0.00 | 82 | 1031.0 |
| 20260508150030 | 51 | 0 | 0.0 | 0.0 | 0.00 | 0.00 | 0.00 | 82 | 1031.0 |
| 20260508145510 | 51 | 0 | 0.0 | 0.0 | 0.00 | 0.00 | 0.00 | 82 | 1031.1 |
| 20260508145011 | 51 | 0 | 0.0 | 0.0 | 0.00 | 0.00 | 0.00 | 82 | 1031.1 |
| 20260508144529 | 51 | 0 | 0.0 | 0.0 | 0.00 | 0.00 | 0.00 | 82 | 1031.1 |
| 20260508144007 | 51 | 0 | 0.0 | 0.0 | 0.00 | 0.00 | 0.00 | 82 | 1031.1 |
| 20260508143510 | 51 | 0 | 0.0 | 0.0 | 0.00 | 0.00 | 0.00 | 82 | 1031.2 |
| 20260508143028 | 51 | 0 | 0.0 | 0.0 | 0.00 | 0.00 | 0.00 | 81 | 1031.1 |
| 20260508142511 | 51 | 0 | 0.0 | 0.0 | 0.00 | 0.00 | 0.00 | 81 | 1031.1 |
| 20260508142011 | 51 | 0 | 0.0 | 0.0 | 0.00 | 0.00 | 0.00 | 81 | 1031.1 |
| 20260508141530 | 51 | 0 | 0.0 | 0.0 | 0.00 | 0.00 | 0.00 | 81 | 1031.1 |
| 20260508141010 | 51 | 0 | 0.0 | 0.0 | 0.00 | 0.00 | 0.00 | 81 | 1031.1 |
| 20260508140511 | 51 | 0 | 0.0 | 0.0 | 0.00 | 0.00 | 0.00 | 81 | 1031.1 |
| 20260508140029 | 51 | 0 | 0.0 | 0.0 | 0.00 | 0.00 | 0.00 | 81 | 1031.1 |
| 20260508135514 | 51 | 0 | 0.0 | 0.0 | 0.00 | 0.00 | 0.00 | 81 | 1031.2 |
| 20260508135011 | 52 | 0 | 0.0 | 0.0 | 0.00 | 0.00 | 0.00 | 81 | 1031.1 |
| 20260508134531 | 52 | 0 | 0.0 | 0.0 | 0.00 | 0.00 | 0.00 | 81 | 1031.2 |
| 20260508134010 | 52 | 0 | 0.0 | 0.0 | 0.00 | 0.00 | 0.00 | 80 | 1031.2 |
| 20260508133513 | 52 | 0 | 0.0 | 0.0 | 0.00 | 0.00 | 0.00 | 80 | 1031.3 |
| 20260508133028 | 52 | 0 | 0.0 | 0.0 | 0.00 | 0.00 | 0.00 | 80 | 1031.4 |
| 20260508132511 | 52 | 0 | 0.0 | 0.0 | 0.00 | 0.00 | 0.00 | 80 | 1031.4 |
| 20260508132010 | 52 | 0 | 0.0 | 0.0 | 0.00 | 0.00 | 0.00 | 80 | 1031.4 |
| 20260508131530 | 53 | 0 | 0.0 | 0.0 | 0.00 | 0.00 | 0.00 | 80 | 1031.5 |
| 20260508131010 | 53 | 0 | 0.0 | 0.0 | 0.00 | 0.00 | 0.00 | 80 | 1031.4 |
| 20260508130516 | 53 | 0 | 0.0 | 0.0 | 0.00 | 0.00 | 0.00 | 80 | 1031.5 |
| 20260508130031 | 53 | 0 | 0.0 | 0.0 | 0.00 | 0.00 | 0.00 | 80 | 1031.6 |
| 20260508125512 | 53 | 0 | 0.0 | 0.0 | 0.00 | 0.00 | 0.00 | 80 | 1031.6 |
| 20260508125010 | 53 | 0 | 0.0 | 0.0 | 0.00 | 0.00 | 0.00 | 80 | 1031.7 |
| 20260508124530 | 53 | 0 | 0.0 | 0.0 | 0.00 | 0.00 | 0.00 | 80 | 1031.6 |
| 20260508124009 | 53 | 0 | 0.0 | 0.0 | 0.00 | 0.00 | 0.00 | 80 | 1031.6 |
| 20260508123512 | 54 | 0 | 0.0 | 0.0 | 0.00 | 0.00 | 0.00 | 80 | 1031.7 |
| 20260508123028 | 54 | 0 | 0.0 | 0.0 | 0.00 | 0.00 | 0.00 | 80 | 1031.6 |
| 20260508122508 | 54 | 0 | 0.0 | 0.0 | 0.00 | 0.00 | 0.00 | 80 | 1031.7 |
| 20260508122013 | 54 | 0 | 0.0 | 0.0 | 0.00 | 0.00 | 0.00 | 80 | 1031.6 |
| 20260508121527 | 54 | 0 | 0.0 | 0.0 | 0.00 | 0.00 | 0.00 | 80 | 1031.7 |
| 20260508121011 | 54 | 0 | 0.0 | 1.0 | 0.00 | 0.00 | 0.00 | 80 | 1031.7 |
| 20260508120510 | 54 | 0 | 0.0 | 1.0 | 0.00 | 0.00 | 0.00 | 80 | 1031.7 |
| 20260508120036 | 54 | 0 | 0.0 | 1.0 | 0.00 | 0.00 | 0.00 | 80 | 1031.7 |
| 20260508115510 | 54 | 0 | 0.0 | 2.0 | 0.00 | 0.00 | 0.00 | 80 | 1031.7 |
| 20260508115008 | 54 | 0 | 0.0 | 2.0 | 0.00 | 0.00 | 0.00 | 79 | 1031.6 |
| 20260508114527 | 54 | 0 | 0.0 | 2.0 | 0.00 | 0.00 | 0.00 | 79 | 1031.7 |
| 20260508114014 | 55 | 0 | 0.0 | 1.0 | 0.00 | 0.00 | 0.00 | 79 | 1031.8 |
| 20260508113509 | 55 | 0 | 0.0 | 1.0 | 0.00 | 0.00 | 0.00 | 79 | 1031.7 |
| 20260508113030 | 55 | 0 | 0.0 | 0.0 | 0.00 | 0.00 | 0.00 | 79 | 1031.6 |
| 20260508112515 | 55 | 0 | 0.0 | 0.0 | 0.00 | 0.00 | 0.00 | 79 | 1031.6 |
| 20260508112008 | 55 | 0 | 0.0 | 0.0 | 0.00 | 0.00 | 0.00 | 79 | 1031.5 |
| 20260508111531 | 56 | 0 | 0.0 | 0.0 | 0.00 | 0.00 | 0.00 | 79 | 1031.5 |
| 20260508111008 | 56 | 0 | 0.0 | 0.0 | 0.00 | 0.00 | 0.00 | 79 | 1031.5 |
| 20260508110507 | 56 | 0 | 0.0 | 0.0 | 0.00 | 0.00 | 0.00 | 79 | 1031.5 |
| 20260508110029 | 56 | 0 | 0.0 | 0.0 | 0.00 | 0.00 | 0.00 | 79 | 1031.4 |
| 20260508105509 | 56 | 0 | 0.0 | 0.0 | 0.00 | 0.00 | 0.00 | 79 | 1031.5 |
| 20260508105012 | 56 | 0 | 0.0 | 0.0 | 0.00 | 0.00 | 0.00 | 79 | 1031.5 |
| 20260508104528 | 57 | 0 | 0.0 | 1.0 | 0.00 | 0.00 | 0.00 | 79 | 1031.5 |
| 20260508104008 | 57 | 0 | 0.0 | 1.0 | 0.00 | 0.00 | 0.00 | 79 | 1031.4 |
| 20260508103511 | 57 | 239 | 0.0 | 1.0 | 0.00 | 0.00 | 0.00 | 78 | 1031.5 |
| 20260508103026 | 57 | 0 | 0.0 | 1.0 | 0.00 | 0.00 | 0.00 | 78 | 1031.4 |
| 20260508102508 | 57 | 0 | 0.0 | 2.0 | 0.00 | 0.00 | 0.00 | 79 | 1031.5 |
| 20260508102013 | 58 | 0 | 0.0 | 2.0 | 0.00 | 0.00 | 0.00 | 79 | 1031.4 |
| 20260508101526 | 58 | 0 | 0.0 | 1.0 | 0.00 | 0.00 | 0.00 | 78 | 1031.4 |
| 20260508101008 | 58 | 0 | 0.0 | 1.0 | 0.00 | 0.00 | 0.00 | 78 | 1031.4 |
| 20260508100508 | 58 | 0 | 0.0 | 0.0 | 0.00 | 0.00 | 0.00 | 79 | 1031.3 |
| 20260508100027 | 58 | 0 | 0.0 | 0.0 | 0.00 | 0.00 | 0.00 | 79 | 1031.3 |
| 20260508095508 | 58 | 0 | 0.0 | 1.0 | 0.00 | 0.00 | 0.00 | 79 | 1031.2 |
| 20260508095008 | 59 | 0 | 0.0 | 1.0 | 0.00 | 0.00 | 0.00 | 79 | 1031.3 |
| 20260508094526 | 59 | 0 | 0.0 | 1.0 | 0.00 | 0.00 | 0.00 | 78 | 1031.4 |